[[{"header":{"parameterUnit":"m.s-1","parameterCategory":2,"la1":30.2991,"la2":30.254,"lo1":-89.0895,"lo2":-89.0444,"dy":0.0017,"dx":0.0017,"nx":28,"ny":28,"refTime":"2023-11-08T03:00:00:Z","depth":"0","parameterNumber":2,"parameterNumberName":"U-component_of_CURRENTS"},"data":[0,0,0,0,0,0,0,0,0,0,0,0,0,0,0,0,0,0,0,0,0,0,0,0,0,0,0,0,0,0,0,0,0,0,0,0,0,0,0,0,0,0,0,0,0,0,0,0,0,0,0,0,0,0,0,0,0,0,0.0131,0.0131,0,0.0166,0.0167,0.0167,0.0199,0.0199,0.02,0.02,0.03,0.0303,0.0305,0,0,0,0,0,0,0,0,0,0,0,0,0,0.0137,0.0136,0.013,0.0131,0.0132,0.0166,0.0167,0.0167,0.0199,0.0199,0.02,0.02,0.03,0.0302,0.0305,0,0,0,0,0,0,0,0,0,0,0,0,0,0.0149,0.0136,0.013,0.0152,0.0155,0.0166,0.0167,0.0167,0.0199,0.0199,0.02,0.0201,0.0299,0.0302,0.0305,0.0312,0,0,0.0316,0.0317,0,0,0,0,0,0,0,0,0.0148,0.0148,0.0149,0.0151,0.0154,0.018,0.0206,0.0219,0.0198,0.0181,0.02,0.0201,0.0266,0.0272,0.0275,0.0317,0.0321,0.0316,0.0318,0.0319,0.032,0,0,0,0,0,0,0,0.0147,0.0147,0.0144,0.0149,0.0152,0.0177,0.0179,0.0208,0.022,0.0182,0.0185,0.019,0.0268,0.0272,0.0278,0.0323,0.0316,0.0319,0.0321,0.0322,0.0376,0.0376,0,0,0,0,0,0,0.0141,0.0146,0.0143,0.0145,0.0154,0.0176,0.0178,0.017,0.0218,0.0226,0.019,0.0192,0.0266,0.0274,0.0282,0.0279,0.0319,0.0322,0.0324,0.0377,0.0376,0.0375,0,0,0,0,0,0,0.0141,0.014,0.0141,0.0148,0.015,0.0175,0.0166,0.017,0.0168,0.0223,0.0232,0.0183,0.0266,0.0277,0.0294,0.0284,0.0324,0.0327,0.0377,0.0377,0.0376,0.0282,0,0,0,0,0,0,0.0141,0.0139,0.0126,0.0147,0.015,0.0136,0.0165,0.017,0.0171,0.0174,0.022,0.023,0.0268,0.0288,0.0297,0.0289,0.033,0.0378,0.0377,0.0376,0.0286,0.0278,0.0271,0,0,0,0,0,0.014,0.0122,0.0125,0.0124,0.0132,0.0135,0.0138,0.0159,0.017,0.0161,0.019,0.0229,0.0288,0.029,0.03,0.0293,0.0379,0.0377,0.0376,0.0289,0.028,0.0272,0,0,0,0,0,0,0.0121,0.0125,0.0128,0.0111,0.0117,0.0141,0.0134,0.0148,0.0162,0.0166,0.0216,0.0228,0.024,0.0278,0.0278,0.0307,0.0342,0.0343,0.0273,0.0264,0.0257,0.0203,0.0332,0,0,0,0,0,0.0108,0.0096,0.0104,0.0092,0.0087,0.0106,0.0109,0.0123,0.0142,0.0148,0.0178,0.0214,0.0244,0.0261,0.0292,0.0303,0.0291,0.0308,0.0301,0.0294,0.0258,0.0226,0.0211,0.0371,0.0371,0.0371,0,0,0.0102,0.01,0.0095,0.0087,0.009,0.0077,0.0108,0.0105,0.0096,0.0158,0.0149,0.0187,0.024,0.0251,0.0262,0.0281,0.0243,0.0292,0.0286,0.0253,0.0223,0.0207,0.0192,0.037,0.0371,0.0371,0,0,0.0079,0.0071,0.0049,0.0049,0.0048,0.0053,0.0047,0.0058,0.0058,0.0058,0.0102,0.0122,0.0167,0.0196,0.022,0.0191,0.0203,0.0213,0.0135,0.0105,0.009,0.0077,0.0036,0.002,0.0212,0.0212,0.0212,0,0.0064,0.0044,0.0045,0.0025,0.0019,0.0035,0.0012,0.0012,0.0029,0.0013,0.0044,0.0076,0.0137,0.0134,0.0131,0.0172,0.0144,0.0163,0.0091,0.0078,0.0066,0.0027,0.0011,0.0207,0.0208,0.0208,0.0209,0,0.0036,0.0014,-0.0,-0.0026,-0.0038,-0.0049,-0.0054,-0.0072,-0.0068,-0.0069,-0.0084,-0.0022,-0.001,0.0028,0.0074,0.0029,0.0032,0.0081,0.0103,0.0043,0.0007,-0.0008,0.0201,0.0202,0.0204,0.0205,0,0,0.0014,-0.0018,-0.0023,-0.0042,-0.0063,-0.0074,-0.0116,-0.0154,-0.0197,-0.0181,-0.024,-0.0174,-0.0163,-0.0137,-0.0077,-0.0091,-0.017,-0.0051,-0.0051,-0.0111,-0.027,-0.0268,-0.0284,-0.0146,-0.0149,-0.0152,-0.0264,0,-0.0013,-0.0057,-0.007,-0.0113,-0.0137,-0.0151,-0.0196,-0.0227,-0.0256,-0.0311,-0.0282,-0.0293,-0.0219,-0.0209,-0.0224,-0.0181,-0.0216,-0.0146,-0.0188,-0.019,-0.0196,-0.0303,-0.0259,-0.0356,-0.0279,-0.0282,-0.0284,0,-0.0031,-0.0062,-0.0105,-0.0164,-0.0181,-0.0202,-0.0285,-0.0318,-0.0395,-0.0422,-0.0461,-0.0453,-0.0471,-0.0389,-0.0415,-0.0383,-0.0354,-0.0321,-0.0323,-0.0308,-0.0218,-0.028,-0.0387,-0.0375,-0.0307,-0.0305,-0.0304,0,-0.0023,-0.0087,-0.0121,-0.0131,-0.0196,-0.0228,-0.0265,-0.0346,-0.0389,-0.0488,-0.0542,-0.0589,-0.0591,-0.0595,-0.0531,-0.049,-0.057,-0.049,-0.0475,-0.0474,-0.0439,-0.043,-0.0557,-0.054,-0.054,-0.054,-0.0539,0,-0.003,-0.0058,-0.0114,-0.012,-0.0178,-0.0225,-0.0295,-0.0352,-0.0446,-0.0508,-0.0584,-0.0645,-0.0645,-0.0681,-0.0625,-0.0623,-0.0648,-0.0543,-0.0521,-0.0468,-0.0461,-0.0447,-0.0422,-0.0544,-0.0543,-0.0542,-0.0541,0,0.0002,-0.0036,-0.0062,-0.0131,-0.0158,-0.0183,-0.0269,-0.0328,-0.043,-0.0519,-0.0551,-0.0695,-0.0755,-0.0762,-0.0763,-0.0728,-0.0701,-0.0694,-0.0644,-0.0616,-0.0589,-0.057,-0.0701,-0.066,-0.0733,-0.0734,-0.0735,0,0.0009,0.0005,-0.0039,-0.0062,-0.0084,-0.0137,-0.0185,-0.0284,-0.0341,-0.0531,-0.057,-0.0704,-0.0759,-0.0829,-0.0815,-0.0801,-0.0736,-0.0753,-0.0658,-0.0643,-0.0605,-0.0591,-0.0544,-0.0647,-0.0647,-0.0647,-0.0647,0,0.0033,0.004,0.0017,-0.0012,-0.0044,-0.0091,-0.0157,-0.0191,-0.0318,-0.0388,-0.051,-0.0582,-0.0739,-0.0762,-0.0805,-0.0766,-0.0737,-0.0753,-0.075,-0.0593,-0.0576,-0.0504,-0.0523,-0.0647,-0.0647,-0.0647,-0.0647,-0.0647,0.0059,0.0068,0.0053,0.003,-0.0015,-0.004,-0.0042,-0.0087,-0.0123,-0.0197,-0.0345,-0.0384,-0.0625,-0.0697,-0.0707,-0.0747,-0.0724,-0.0693,-0.0687,-0.0689,-0.0615,-0.0656,-0.0736,-0.0736,-0.0737,-0.0737,-0.0737,0,0.0066,0.0081,0.0073,0.0055,0.0025,-0.0003,-0.0039,-0.0019,0.0015,-0.0,-0.0043,-0.0167,-0.0333,-0.0522,-0.0692,-0.0678,-0.063,-0.0665,-0.0624,-0.0584,-0.0637,-0.0596,-0.0634,-0.0634,-0.0634,-0.0634,-0.0634,-0.0634,0.0072,0.0076,0.0092,0.0082,0.0068,0.0065,0.0074,0.014,0.0171,0.0246,0.0277,0.0242,-0.007,-0.0474,-0.0642,-0.0637,-0.0593,-0.0607,-0.0595,-0.061,-0.0611,-0.0612,-0.057,-0.0602,-0.0602,-0.05,-0.05,-0.0499]},{"header":{"parameterUnit":"m.s-1","parameterCategory":2,"la1":30.2991,"la2":30.254,"lo1":-89.0895,"lo2":-89.0444,"dy":0.0017,"dx":0.0017,"nx":28,"ny":28,"refTime":"2023-11-08T03:00:00:Z","depth":"0","parameterNumber":3,"parameterNumberName":"V-component_of_CURRENTS"},"data":[0,0,0,0,0,0,0,0,0,0,0,0,0,0,0,0,0,0,0,0,0,0,0,0,0,0,0,0,0,0,0,0,0,0,0,0,0,0,0,0,0,0,0,0,0,0,0,0,0,0,0,0,0,0,0,0,0,0,0.0162,0.0162,0,0.0191,0.0192,0.0192,0.0204,0.0204,0.0203,0.0203,0.0267,0.0269,0.0271,0,0,0,0,0,0,0,0,0,0,0,0,0,0.015,0.015,0.0162,0.0162,0.0162,0.0191,0.0192,0.0192,0.0204,0.0204,0.0203,0.0203,0.0266,0.0269,0.0271,0,0,0,0,0,0,0,0,0,0,0,0,0,0.0168,0.015,0.0162,0.0169,0.0169,0.0191,0.0192,0.0193,0.0204,0.0204,0.0203,0.0203,0.0265,0.0268,0.0271,0.0304,0,0,0.0281,0.0282,0,0,0,0,0,0,0,0,0.0167,0.0169,0.0168,0.0168,0.0169,0.019,0.021,0.023,0.0205,0.0195,0.0203,0.0202,0.0242,0.0247,0.0259,0.0307,0.031,0.0281,0.0283,0.0285,0.0286,0,0,0,0,0,0,0,0.0166,0.0168,0.0178,0.0168,0.0168,0.0181,0.0183,0.0215,0.0226,0.0196,0.0196,0.0193,0.0243,0.0256,0.0261,0.0311,0.0281,0.0284,0.0286,0.0287,0.0427,0.0428,0,0,0,0,0,0,0.0153,0.0167,0.0177,0.0178,0.0162,0.0181,0.0184,0.0187,0.0225,0.0228,0.0193,0.0193,0.0251,0.0257,0.0263,0.0332,0.0285,0.0288,0.0289,0.0425,0.0427,0.0429,0,0,0,0,0,0,0.0153,0.0154,0.0176,0.0169,0.0172,0.0181,0.0186,0.0188,0.0199,0.0222,0.0227,0.0202,0.0251,0.0259,0.0312,0.0334,0.0289,0.0292,0.0423,0.0425,0.0428,0.0452,0,0,0,0,0,0,0.0153,0.0154,0.0154,0.0169,0.0172,0.0193,0.0186,0.0189,0.0196,0.0197,0.0231,0.0236,0.0251,0.0307,0.0315,0.0337,0.0294,0.042,0.0424,0.0427,0.0449,0.0456,0.0461,0,0,0,0,0,0.0152,0.0153,0.0154,0.0155,0.0171,0.0193,0.0198,0.0204,0.0197,0.0211,0.0243,0.0235,0.0333,0.0311,0.032,0.0344,0.0419,0.0423,0.0427,0.0447,0.0454,0.0461,0,0,0,0,0,0,0.0145,0.0155,0.0155,0.0159,0.0176,0.0194,0.0198,0.0205,0.024,0.0235,0.0262,0.0271,0.0326,0.0336,0.0311,0.0396,0.0373,0.0379,0.0385,0.0393,0.0398,0.0373,0.0297,0,0,0,0,0,0.0143,0.0148,0.0162,0.0166,0.017,0.0185,0.0193,0.0197,0.0225,0.0238,0.0271,0.0306,0.0351,0.0371,0.041,0.0456,0.0473,0.0477,0.0483,0.0487,0.0475,0.0531,0.054,0.0442,0.0442,0.0442,0,0,0.014,0.0145,0.0148,0.0165,0.0174,0.0189,0.019,0.0198,0.0221,0.0241,0.0292,0.033,0.037,0.0427,0.0451,0.0436,0.0531,0.0493,0.0496,0.0481,0.0536,0.0545,0.0554,0.0445,0.0445,0.0444,0,0,0.013,0.0142,0.0138,0.016,0.017,0.0185,0.0188,0.0215,0.0238,0.0292,0.0316,0.0368,0.0433,0.0471,0.0496,0.0557,0.0563,0.0569,0.0574,0.063,0.0638,0.0645,0.07,0.0712,0.0568,0.0568,0.0568,0,0.0117,0.0122,0.0143,0.0152,0.0162,0.0184,0.0187,0.0226,0.0273,0.0298,0.0309,0.042,0.0455,0.0522,0.0546,0.0568,0.0598,0.0542,0.0636,0.0643,0.0649,0.0705,0.0717,0.0569,0.0569,0.0569,0.0569,0,0.011,0.0119,0.0122,0.0142,0.0162,0.0171,0.0215,0.0252,0.0282,0.0319,0.0397,0.046,0.0514,0.0548,0.0567,0.0635,0.0642,0.0639,0.0611,0.066,0.0716,0.0729,0.0572,0.0571,0.0571,0.057,0,0,0.0076,0.0102,0.0108,0.0107,0.0153,0.0162,0.0218,0.0264,0.0289,0.0369,0.0413,0.0512,0.0533,0.0563,0.06,0.0655,0.0744,0.0663,0.0665,0.0706,0.0871,0.0903,0.092,0.0756,0.0758,0.076,0.0898,0,0.0059,0.0047,0.0083,0.0096,0.0093,0.015,0.0191,0.0245,0.0308,0.0369,0.0451,0.0507,0.0543,0.0564,0.0631,0.0717,0.0775,0.0706,0.0827,0.083,0.0842,0.0934,0.0948,0.1075,0.0911,0.0913,0.0914,0,0.0055,0.004,0.0026,0.0047,0.0052,0.0074,0.013,0.0172,0.0276,0.0321,0.0403,0.0468,0.0574,0.0583,0.0758,0.0713,0.0785,0.0853,0.0859,0.0881,0.0885,0.0997,0.1104,0.1114,0.0934,0.0932,0.0931,0,0.0012,0.0017,-0.0011,0.0003,0.003,0.0045,0.0067,0.0153,0.0179,0.0289,0.032,0.0457,0.052,0.0645,0.0802,0.0779,0.0991,0.0974,0.1071,0.1074,0.1105,0.1107,0.1222,0.1078,0.1078,0.1077,0.1077,0,-0.0005,-0.001,-0.0039,-0.0042,-0.0065,-0.0022,-0.0014,0.0045,0.0106,0.0134,0.0274,0.0347,0.0536,0.0688,0.0811,0.1003,0.1005,0.1092,0.112,0.1117,0.1119,0.1141,0.1127,0.1082,0.1081,0.108,0.1079,0,-0.0008,-0.0031,-0.0056,-0.0072,-0.008,-0.009,-0.0083,-0.0077,-0.0007,0.004,0.0067,0.0275,0.0488,0.0684,0.0911,0.1015,0.1233,0.124,0.1229,0.1254,0.1335,0.1322,0.1504,0.1571,0.1373,0.1375,0.1376,0,-0.001,-0.0033,-0.0086,-0.0116,-0.0118,-0.0144,-0.0164,-0.0133,-0.0134,0.0008,0.0023,0.0252,0.0448,0.0822,0.1044,0.1288,0.1311,0.1415,0.1368,0.1364,0.1371,0.1388,0.1432,0.1432,0.1434,0.1435,0.1436,0,-0.0009,-0.0034,-0.0061,-0.0138,-0.0179,-0.0218,-0.0248,-0.028,-0.0237,-0.0198,-0.004,0.0149,0.055,0.0874,0.1191,0.1341,0.1446,0.145,0.1458,0.1443,0.1459,0.1528,0.1309,0.1449,0.1448,0.1447,0.1446,0.1446,-0.0003,-0.0023,-0.0084,-0.0141,-0.0203,-0.0265,-0.029,-0.0341,-0.0353,-0.0268,-0.0086,0.0191,0.07,0.1182,0.1335,0.1561,0.155,0.1601,0.1595,0.1619,0.166,0.1469,0.1625,0.1624,0.1624,0.1624,0.1624,0,-0.0009,-0.0034,-0.0085,-0.0157,-0.0224,-0.0252,-0.0323,-0.0338,-0.0367,-0.0299,-0.0133,0.0411,0.0828,0.1213,0.155,0.1665,0.1748,0.1721,0.1728,0.1775,0.1619,0.1591,0.1732,0.1732,0.1732,0.1732,0.1732,0.1732,-0.0006,-0.0056,-0.0077,-0.0167,-0.0211,-0.0262,-0.0295,-0.0322,-0.0302,-0.0142,0.008,0.036,0.0904,0.1357,0.1636,0.1708,0.1806,0.1836,0.1887,0.1713,0.17,0.1687,0.166,0.1812,0.1812,0.2066,0.2068,0.2069]}],[{"header":{"parameterUnit":"m.s-1","parameterCategory":2,"la1":30.2991,"la2":30.254,"lo1":-89.0895,"lo2":-89.0444,"dy":0.0017,"dx":0.0017,"nx":28,"ny":28,"refTime":"2023-11-08T03:00:00:Z","depth":"2","parameterNumber":2,"parameterNumberName":"U-component_of_CURRENTS"},"data":[0,0,0,0,0,0,0,0,0,0,0,0,0,0,0,0,0,0,0,0,0,0,0,0,0,0,0,0,0,0,0,0,0,0,0,0,0,0,0,0,0,0,0,0,0,0,0,0,0,0,0,0,0,0,0,0,0,0,-0.2332,-0.2331,0,-0.228,-0.2279,-0.2279,-0.2224,-0.2223,-0.2223,-0.2222,-0.2134,-0.2133,-0.2131,0,0,0,0,0,0,0,0,0,0,0,0,0,-0.2351,-0.2351,-0.2332,-0.2331,-0.2331,-0.228,-0.2279,-0.2278,-0.2224,-0.2223,-0.2223,-0.2222,-0.2135,-0.2133,-0.2131,0,0,0,0,0,0,0,0,0,0,0,0,0,-0.2324,-0.2351,-0.2332,-0.2298,-0.2295,-0.228,-0.2279,-0.2278,-0.2224,-0.2223,-0.2222,-0.2221,-0.2136,-0.2133,-0.2131,-0.2135,0,0,-0.2123,-0.2122,0,0,0,0,0,0,0,0,-0.2326,-0.2324,-0.2304,-0.23,-0.2297,-0.2258,-0.2254,-0.2229,-0.2225,-0.225,-0.2222,-0.2221,-0.2174,-0.2168,-0.216,-0.2131,-0.2127,-0.2123,-0.2121,-0.212,-0.2119,0,0,0,0,0,0,0,-0.2328,-0.2325,-0.231,-0.2303,-0.2299,-0.2275,-0.227,-0.2249,-0.2217,-0.2248,-0.2244,-0.224,-0.2171,-0.2162,-0.2157,-0.2126,-0.2123,-0.212,-0.2119,-0.2118,-0.2073,-0.2073,0,0,0,0,0,0,-0.2339,-0.2327,-0.2312,-0.2309,-0.231,-0.2275,-0.227,-0.2271,-0.2218,-0.2209,-0.2241,-0.2238,-0.2167,-0.216,-0.2154,-0.2111,-0.212,-0.2117,-0.2116,-0.2072,-0.2073,-0.2073,0,0,0,0,0,0,-0.234,-0.2339,-0.2314,-0.2317,-0.2312,-0.2276,-0.2277,-0.227,-0.2247,-0.2213,-0.2203,-0.2223,-0.2166,-0.2157,-0.2132,-0.2108,-0.2116,-0.2114,-0.2072,-0.2073,-0.2073,-0.2053,0,0,0,0,0,0,-0.2341,-0.2339,-0.2337,-0.2318,-0.2313,-0.2306,-0.2278,-0.227,-0.2247,-0.2242,-0.2195,-0.2187,-0.2165,-0.2136,-0.213,-0.2105,-0.2112,-0.2072,-0.2072,-0.2073,-0.2053,-0.2053,-0.2052,0,0,0,0,0,-0.2342,-0.2352,-0.2337,-0.2335,-0.2313,-0.2307,-0.2301,-0.2271,-0.2248,-0.2244,-0.2212,-0.2187,-0.2135,-0.2135,-0.2127,-0.2101,-0.2071,-0.2072,-0.2073,-0.2053,-0.2053,-0.2052,0,0,0,0,0,0,-0.2359,-0.2347,-0.233,-0.2335,-0.2319,-0.2298,-0.229,-0.2268,-0.224,-0.2228,-0.2191,-0.2182,-0.2154,-0.2139,-0.2139,-0.2094,-0.21,-0.2099,-0.2087,-0.2087,-0.2086,-0.2092,-0.211,0,0,0,0,0,-0.2363,-0.2362,-0.2347,-0.2346,-0.2341,-0.2311,-0.2301,-0.2282,-0.2258,-0.2243,-0.2209,-0.2178,-0.2155,-0.213,-0.2117,-0.2086,-0.2066,-0.2067,-0.2067,-0.2066,-0.2068,-0.2021,-0.2015,-0.2076,-0.2076,-0.2076,0,0,-0.2367,-0.236,-0.2357,-0.2349,-0.2331,-0.2325,-0.2302,-0.2289,-0.2271,-0.2239,-0.2202,-0.218,-0.2153,-0.2123,-0.2108,-0.21,-0.204,-0.2067,-0.2066,-0.2069,-0.2021,-0.2014,-0.2009,-0.2076,-0.2076,-0.2076,0,0,-0.2381,-0.237,-0.2374,-0.2365,-0.2346,-0.233,-0.2325,-0.2298,-0.2273,-0.2246,-0.2218,-0.2183,-0.2146,-0.2114,-0.2095,-0.2086,-0.205,-0.208,-0.2061,-0.2014,-0.2008,-0.2003,-0.197,-0.1961,-0.2065,-0.2065,-0.2065,0,-0.2383,-0.2385,-0.2374,-0.2375,-0.2362,-0.2332,-0.2327,-0.2305,-0.2269,-0.2245,-0.2235,-0.2164,-0.214,-0.2089,-0.2086,-0.208,-0.2056,-0.2059,-0.2011,-0.2005,-0.2,-0.1967,-0.1958,-0.2064,-0.2064,-0.2064,-0.2064,0,-0.24,-0.2395,-0.2397,-0.2383,-0.2373,-0.2365,-0.2337,-0.2314,-0.2277,-0.2247,-0.2195,-0.2157,-0.2109,-0.2095,-0.2084,-0.2031,-0.2027,-0.2024,-0.2006,-0.1992,-0.1959,-0.195,-0.2063,-0.2063,-0.2064,-0.2064,0,0,-0.2405,-0.2409,-0.2403,-0.2392,-0.2373,-0.2363,-0.2339,-0.2302,-0.227,-0.2225,-0.2176,-0.2129,-0.2095,-0.2074,-0.2043,-0.2,-0.1941,-0.1993,-0.1991,-0.1949,-0.1841,-0.185,-0.1841,-0.192,-0.1918,-0.1917,-0.1832,0,-0.241,-0.2419,-0.2414,-0.2398,-0.2393,-0.2363,-0.2341,-0.2304,-0.2262,-0.2212,-0.2153,-0.2103,-0.2089,-0.2053,-0.2008,-0.1964,-0.1916,-0.1965,-0.1871,-0.1869,-0.1869,-0.1831,-0.1617,-0.1525,-0.1823,-0.1822,-0.1821,0,-0.2411,-0.2415,-0.2413,-0.2394,-0.2387,-0.237,-0.2316,-0.2293,-0.2229,-0.2195,-0.213,-0.209,-0.2015,-0.201,-0.1904,-0.1933,-0.1888,-0.1854,-0.185,-0.186,-0.1861,-0.1589,-0.1497,-0.1805,-0.1807,-0.1808,-0.1809,0,-0.2399,-0.2402,-0.2396,-0.2391,-0.2374,-0.2352,-0.2328,-0.2277,-0.2245,-0.2171,-0.2138,-0.2053,-0.1995,-0.1928,-0.1867,-0.1872,-0.1764,-0.1759,-0.1724,-0.1724,-0.1527,-0.1514,-0.1684,-0.1684,-0.1684,-0.1684,-0.1685,0,-0.2391,-0.2378,-0.2388,-0.2378,-0.2352,-0.2342,-0.2295,-0.2263,-0.2214,-0.2174,-0.2117,-0.2068,-0.1971,-0.1904,-0.1853,-0.1763,-0.1744,-0.1714,-0.1696,-0.1518,-0.1505,-0.1743,-0.1751,-0.1681,-0.1682,-0.1682,-0.1683,0,-0.236,-0.2373,-0.2361,-0.2353,-0.2342,-0.2314,-0.2274,-0.225,-0.2207,-0.2152,-0.2127,-0.2053,-0.1966,-0.1891,-0.1781,-0.1738,-0.1662,-0.164,-0.1453,-0.1417,-0.1655,-0.1663,-0.1569,-0.1568,-0.1568,-0.1567,-0.1567,0,-0.2341,-0.2336,-0.2333,-0.2322,-0.2309,-0.2276,-0.2259,-0.2231,-0.2203,-0.2147,-0.2117,-0.2035,-0.1951,-0.1805,-0.1666,-0.1547,-0.1645,-0.1357,-0.1339,-0.1647,-0.1639,-0.1648,-0.1657,-0.1055,-0.105,-0.1047,-0.1044,0,-0.2294,-0.2295,-0.2295,-0.2261,-0.2245,-0.2231,-0.2198,-0.2172,-0.2145,-0.2105,-0.2034,-0.1969,-0.1807,-0.1556,-0.1433,-0.1362,-0.136,-0.1286,-0.1593,-0.1158,-0.1166,-0.1159,-0.1182,-0.1011,-0.1014,-0.1017,-0.1018,-0.102,-0.2246,-0.2227,-0.221,-0.2167,-0.2162,-0.2125,-0.2052,-0.2051,-0.1983,-0.1802,-0.188,-0.1638,-0.1512,-0.1146,-0.1116,-0.1069,-0.1162,-0.109,-0.1098,-0.111,-0.1107,-0.1118,-0.0952,-0.0955,-0.0958,-0.096,-0.0962,0,-0.2142,-0.2117,-0.2101,-0.203,-0.1972,-0.2,-0.1956,-0.1851,-0.1728,-0.1567,-0.1439,-0.1106,-0.091,-0.0841,-0.0677,-0.0708,-0.0678,-0.0735,-0.0645,-0.0674,-0.0701,-0.0676,-0.0408,-0.0407,-0.0407,-0.0407,0,0,-0.2075,-0.201,-0.1992,-0.1829,-0.1778,-0.1637,-0.1578,-0.1489,-0.1338,-0.1031,-0.0784,-0.065,-0.0668,-0.0436,-0.0462,-0.041,-0.0545,-0.0401,-0.0818,-0.073,-0.0756,-0.0857,-0.0847,0,0,0,0,0]},{"header":{"parameterUnit":"m.s-1","parameterCategory":2,"la1":30.2991,"la2":30.254,"lo1":-89.0895,"lo2":-89.0444,"dy":0.0017,"dx":0.0017,"nx":28,"ny":28,"refTime":"2023-11-08T03:00:00:Z","depth":"2","parameterNumber":3,"parameterNumberName":"V-component_of_CURRENTS"},"data":[0,0,0,0,0,0,0,0,0,0,0,0,0,0,0,0,0,0,0,0,0,0,0,0,0,0,0,0,0,0,0,0,0,0,0,0,0,0,0,0,0,0,0,0,0,0,0,0,0,0,0,0,0,0,0,0,0,0,-0.0005,-0.0005,0,0.005,0.0051,0.0051,0.0058,0.0058,0.0057,0.0057,0.0086,0.0087,0.0089,0,0,0,0,0,0,0,0,0,0,0,0,0,-0.0058,-0.0058,-0.0005,-0.0004,-0.0004,0.005,0.0051,0.0052,0.0058,0.0058,0.0057,0.0056,0.0086,0.0087,0.0089,0,0,0,0,0,0,0,0,0,0,0,0,0,-0.0022,-0.0057,-0.0005,0.0005,0.0007,0.005,0.0051,0.0052,0.0059,0.0058,0.0057,0.0056,0.0085,0.0087,0.0089,0.012,0,0,0.0095,0.0096,0,0,0,0,0,0,0,0,-0.0024,-0.002,0.0003,0.0005,0.0006,0.0045,0.0043,0.0073,0.0059,0.004,0.0057,0.0055,0.007,0.0073,0.0088,0.0122,0.0123,0.0096,0.0097,0.0098,0.0098,0,0,0,0,0,0,0,-0.0026,-0.0022,0.0018,0.0004,0.0006,0.0023,0.0027,0.0049,0.006,0.0042,0.0042,0.0047,0.0071,0.0086,0.0088,0.0124,0.0096,0.0097,0.0099,0.0099,0.0162,0.0162,0,0,0,0,0,0,-0.0036,-0.0024,0.0016,0.0019,-0.0012,0.0024,0.0029,0.0035,0.006,0.0063,0.0048,0.0047,0.0083,0.0086,0.0089,0.0102,0.0098,0.01,0.0101,0.0161,0.0162,0.0162,0,0,0,0,0,0,-0.0038,-0.0033,0.0014,-0.0002,0.0005,0.0026,0.0033,0.0036,0.0035,0.0065,0.0067,0.0041,0.0082,0.0086,0.0102,0.0104,0.0101,0.0102,0.0161,0.0161,0.0162,0.0144,0,0,0,0,0,0,-0.0039,-0.0034,-0.0039,-0.0003,0.0005,0.0033,0.0034,0.0038,0.004,0.004,0.0061,0.0063,0.0082,0.0098,0.0104,0.0107,0.0104,0.016,0.0161,0.0162,0.0144,0.0144,0.0144,0,0,0,0,0,-0.0042,-0.004,-0.0039,-0.0034,0.0,0.0033,0.0039,0.0052,0.0041,0.0046,0.0057,0.0062,0.0107,0.0101,0.0106,0.011,0.016,0.0161,0.0162,0.0145,0.0144,0.0144,0,0,0,0,0,0,-0.0064,-0.0038,-0.0036,-0.0027,-0.0004,0.0034,0.0037,0.0043,0.0058,0.0048,0.0069,0.0074,0.0089,0.0103,0.0095,0.0131,0.0134,0.0136,0.0119,0.0119,0.0119,0.0129,0.0106,0,0,0,0,0,-0.0071,-0.0065,-0.0035,-0.0029,-0.0021,0.0003,0.0013,0.0023,0.0043,0.0047,0.0063,0.008,0.0103,0.011,0.0133,0.0153,0.0168,0.0159,0.0159,0.0159,0.0172,0.0192,0.0195,0.0165,0.0165,0.0165,0,0,-0.0078,-0.0064,-0.0061,-0.0034,-0.0018,0.0002,0.0007,0.002,0.0038,0.0049,0.0068,0.008,0.0108,0.0131,0.0139,0.0139,0.0174,0.016,0.016,0.0173,0.0194,0.0196,0.0199,0.0166,0.0166,0.0166,0,0,-0.0082,-0.0078,-0.0073,-0.0053,-0.0033,-0.0011,-0.0012,0.0018,0.0028,0.0052,0.0063,0.008,0.011,0.0137,0.0153,0.0168,0.0172,0.0163,0.0171,0.019,0.0193,0.0195,0.0208,0.0212,0.0162,0.0162,0.0162,0,-0.0095,-0.008,-0.0066,-0.0052,-0.0035,-0.002,-0.0003,0.0017,0.0048,0.0063,0.0054,0.0105,0.0121,0.016,0.0164,0.0169,0.0172,0.0166,0.0189,0.0192,0.0195,0.0208,0.0213,0.0162,0.0162,0.0162,0.0162,0,-0.0089,-0.0079,-0.0073,-0.005,-0.0029,-0.0013,0.002,0.0035,0.0043,0.0066,0.0096,0.0122,0.0154,0.0156,0.0165,0.0194,0.0186,0.0185,0.0187,0.0197,0.021,0.0215,0.0161,0.0161,0.0161,0.0161,0,0,-0.0119,-0.0077,-0.0078,-0.0065,-0.0026,-0.0009,0.0024,0.0064,0.0081,0.0103,0.0133,0.0168,0.017,0.019,0.0198,0.0213,0.023,0.0201,0.0203,0.021,0.0261,0.0282,0.0289,0.022,0.0221,0.0222,0.0258,0,-0.0121,-0.0098,-0.0068,-0.0043,-0.0029,0.0009,0.0041,0.0075,0.0104,0.0135,0.0161,0.0188,0.0186,0.0192,0.021,0.0227,0.0243,0.022,0.0255,0.0256,0.027,0.0297,0.0169,0.0193,0.0263,0.0264,0.0264,0,-0.0133,-0.0111,-0.009,-0.004,-0.003,-0.001,0.0041,0.0075,0.0128,0.0149,0.0182,0.0201,0.0237,0.0225,0.0269,0.0247,0.0257,0.0267,0.0268,0.0303,0.0288,0.0197,0.02,0.0273,0.0272,0.0271,0.0271,0,-0.0179,-0.0129,-0.0114,-0.0098,-0.004,-0.0022,0.0011,0.0068,0.0092,0.0153,0.0168,0.022,0.0234,0.0262,0.0289,0.0273,0.033,0.0315,0.0348,0.0349,0.0259,0.0252,0.0351,0.0351,0.0351,0.0351,0.0351,0,-0.0202,-0.0191,-0.0139,-0.0136,-0.0116,-0.0058,-0.0034,0.0012,0.0069,0.0089,0.0159,0.018,0.024,0.0279,0.03,0.0346,0.0343,0.0366,0.0368,0.025,0.0241,0.0327,0.0323,0.0352,0.0352,0.0352,0.0352,0,-0.0268,-0.0231,-0.0216,-0.016,-0.0146,-0.0138,-0.0081,-0.0062,0.0006,0.0036,0.0051,0.0145,0.021,0.0277,0.0334,0.036,0.0403,0.0417,0.0279,0.0267,0.0404,0.0399,0.0464,0.0465,0.0466,0.0467,0.0468,0,-0.0299,-0.0301,-0.0261,-0.0262,-0.0242,-0.0217,-0.0204,-0.012,-0.0094,0.0003,0.0009,0.0104,0.016,0.0281,0.033,0.04,0.0431,0.035,0.0318,0.0424,0.0419,0.0413,0.0407,0.0178,0.0177,0.0175,0.0174,0,-0.0361,-0.0355,-0.0347,-0.0347,-0.034,-0.0314,-0.028,-0.0265,-0.0169,-0.0123,-0.0047,0.0015,0.013,0.0171,0.0289,0.031,0.0335,0.0328,0.0465,0.0186,0.0162,0.0155,0.0157,0.0162,0.0163,0.0164,0.0164,0.0165,-0.042,-0.0437,-0.0433,-0.0434,-0.042,-0.0397,-0.0364,-0.031,-0.0257,-0.0169,-0.013,-0.0057,-0.0023,0.0103,0.0188,0.0277,0.0286,0.0269,0.0269,0.0271,0.0249,0.023,0.0237,0.0239,0.024,0.0241,0.0242,0,-0.0491,-0.0502,-0.0515,-0.0503,-0.0491,-0.0458,-0.04,-0.0341,-0.0258,-0.0236,-0.0164,-0.0167,-0.0122,-0.0018,0.007,0.0151,0.0128,0.019,0.0102,0.011,0.0118,0.0087,0.0033,0.0034,0.0035,0.0036,0,0,-0.0534,-0.0574,-0.0576,-0.0569,-0.0544,-0.0483,-0.0432,-0.0328,-0.027,-0.0232,-0.0228,-0.0256,-0.0176,-0.0154,-0.0084,-0.0007,0.0058,0.001,0.0144,0.0034,0.0043,0.0103,0.0057,0,0,0,0,0]}],[{"header":{"parameterUnit":"m.s-1","parameterCategory":2,"la1":30.2991,"la2":30.254,"lo1":-89.0895,"lo2":-89.0444,"dy":0.0017,"dx":0.0017,"nx":28,"ny":28,"refTime":"2023-11-08T03:00:00:Z","depth":"4","parameterNumber":2,"parameterNumberName":"U-component_of_CURRENTS"},"data":[0,0,0,0,0,0,0,0,0,0,0,0,0,0,0,0,0,0,0,0,0,0,0,0,0,0,0,0,0,0,0,0,0,0,0,0,0,0,0,0,0,0,0,0,0,0,0,0,0,0,0,0,0,0,0,0,0,0,-0.0744,-0.0744,0,-0.0778,-0.0778,-0.0778,-0.0793,-0.0794,-0.0794,-0.0795,-0.0821,-0.0822,-0.0822,0,0,0,0,0,0,0,0,0,0,0,0,0,-0.0705,-0.0705,-0.0744,-0.0744,-0.0745,-0.0778,-0.0778,-0.0778,-0.0793,-0.0794,-0.0794,-0.0795,-0.0821,-0.0822,-0.0822,0,0,0,0,0,0,0,0,0,0,0,0,0,-0.0724,-0.0705,-0.0743,-0.0761,-0.0763,-0.0778,-0.0778,-0.0778,-0.0793,-0.0794,-0.0794,-0.0795,-0.0821,-0.0822,-0.0822,-0.0813,0,0,-0.0824,-0.0824,0,0,0,0,0,0,0,0,-0.0723,-0.0725,-0.0757,-0.0759,-0.0762,-0.0786,-0.0774,-0.0791,-0.0793,-0.0776,-0.0795,-0.0795,-0.0812,-0.0813,-0.0811,-0.0814,-0.0815,-0.0824,-0.0824,-0.0824,-0.0824,0,0,0,0,0,0,0,-0.0721,-0.0724,-0.0752,-0.0758,-0.0761,-0.0772,-0.0774,-0.0777,-0.0786,-0.0778,-0.078,-0.0792,-0.0812,-0.0811,-0.0812,-0.0816,-0.0824,-0.0824,-0.0824,-0.0825,-0.0897,-0.0898,0,0,0,0,0,0,-0.0726,-0.0722,-0.0751,-0.0754,-0.0749,-0.0772,-0.0775,-0.0774,-0.0787,-0.0791,-0.0791,-0.0792,-0.081,-0.0811,-0.0813,-0.0901,-0.0824,-0.0825,-0.0825,-0.0895,-0.0897,-0.0899,0,0,0,0,0,0,-0.0724,-0.0727,-0.075,-0.0743,-0.0748,-0.0772,-0.0771,-0.0774,-0.0787,-0.0798,-0.0801,-0.0803,-0.081,-0.0812,-0.0844,-0.0898,-0.0825,-0.0825,-0.0893,-0.0896,-0.0898,-0.1013,0,0,0,0,0,0,-0.0723,-0.0726,-0.0732,-0.0743,-0.0748,-0.0767,-0.0771,-0.0775,-0.0794,-0.0796,-0.0808,-0.081,-0.0811,-0.0844,-0.0845,-0.0898,-0.0826,-0.0891,-0.0895,-0.0897,-0.1007,-0.1019,-0.103,0,0,0,0,0,-0.0721,-0.0734,-0.0731,-0.0736,-0.0753,-0.0768,-0.0771,-0.0788,-0.0795,-0.08,-0.0823,-0.0811,-0.0864,-0.0845,-0.0846,-0.0901,-0.089,-0.0894,-0.0897,-0.1003,-0.1017,-0.1029,0,0,0,0,0,0,-0.0723,-0.0738,-0.0735,-0.0751,-0.076,-0.0773,-0.0791,-0.0794,-0.0813,-0.0829,-0.0827,-0.0831,-0.0881,-0.0866,-0.0846,-0.0928,-0.0876,-0.088,-0.0956,-0.097,-0.098,-0.096,-0.0826,0,0,0,0,0,-0.0724,-0.073,-0.0745,-0.0753,-0.0766,-0.0776,-0.0788,-0.08,-0.0819,-0.0828,-0.0841,-0.0862,-0.0893,-0.0911,-0.0924,-0.0964,-0.0958,-0.0999,-0.101,-0.102,-0.1003,-0.1103,-0.1123,-0.0911,-0.0911,-0.0911,0,0,-0.0722,-0.0734,-0.0735,-0.0753,-0.0765,-0.078,-0.0784,-0.0813,-0.083,-0.0829,-0.0866,-0.0896,-0.0909,-0.0965,-0.0986,-0.0965,-0.1067,-0.1024,-0.1033,-0.101,-0.1109,-0.113,-0.1149,-0.0913,-0.0913,-0.0913,0,0,-0.072,-0.0739,-0.0741,-0.0757,-0.0787,-0.0799,-0.0809,-0.0836,-0.0858,-0.0892,-0.0914,-0.0967,-0.0995,-0.103,-0.1047,-0.1117,-0.1119,-0.114,-0.119,-0.129,-0.1308,-0.1325,-0.1306,-0.132,-0.1153,-0.1153,-0.1153,0,-0.0715,-0.072,-0.0745,-0.076,-0.0782,-0.0807,-0.0824,-0.0846,-0.088,-0.0916,-0.0915,-0.0995,-0.1019,-0.1092,-0.1142,-0.1142,-0.1175,-0.1145,-0.1307,-0.1324,-0.1339,-0.1315,-0.133,-0.1159,-0.1158,-0.1158,-0.1157,0,-0.0715,-0.0724,-0.0736,-0.0756,-0.0787,-0.0808,-0.0852,-0.0893,-0.0927,-0.0956,-0.1033,-0.1065,-0.112,-0.1153,-0.1179,-0.1305,-0.1282,-0.1311,-0.1279,-0.1367,-0.1336,-0.1348,-0.1168,-0.1165,-0.1164,-0.1162,0,0,-0.0682,-0.072,-0.0721,-0.0733,-0.0792,-0.0812,-0.0876,-0.0934,-0.097,-0.1026,-0.1075,-0.1167,-0.1207,-0.1227,-0.1272,-0.1363,-0.1503,-0.1409,-0.1411,-0.1395,-0.1673,-0.1403,-0.1389,-0.1609,-0.1613,-0.1616,-0.1595,0,-0.0664,-0.0673,-0.0713,-0.0736,-0.0756,-0.0826,-0.0871,-0.0944,-0.1,-0.1056,-0.1128,-0.1192,-0.1228,-0.1285,-0.1385,-0.1488,-0.155,-0.15,-0.1582,-0.158,-0.1338,-0.14,-0.1628,-0.1604,-0.1607,-0.1609,-0.161,0,-0.0654,-0.0663,-0.068,-0.0732,-0.075,-0.0781,-0.088,-0.0921,-0.1028,-0.1085,-0.1175,-0.1229,-0.1363,-0.1378,-0.1562,-0.1554,-0.1621,-0.167,-0.1672,-0.1382,-0.1334,-0.1505,-0.1632,-0.163,-0.1629,-0.1627,-0.1626,0,-0.0618,-0.0645,-0.0655,-0.0673,-0.0739,-0.0787,-0.0835,-0.0943,-0.0989,-0.1118,-0.1166,-0.1305,-0.1369,-0.1518,-0.16,-0.1651,-0.1741,-0.1817,-0.1593,-0.1571,-0.1772,-0.1755,-0.1925,-0.1925,-0.1925,-0.1925,-0.1925,0,-0.0583,-0.0592,-0.0638,-0.0645,-0.0679,-0.0758,-0.0809,-0.089,-0.0988,-0.1013,-0.118,-0.1186,-0.1436,-0.1496,-0.1601,-0.1577,-0.1743,-0.1576,-0.1563,-0.1811,-0.1799,-0.1777,-0.1761,-0.1924,-0.1924,-0.1924,-0.1924,0,-0.053,-0.0555,-0.0574,-0.0636,-0.0663,-0.0694,-0.0783,-0.081,-0.0932,-0.0966,-0.1023,-0.1163,-0.1222,-0.1339,-0.1513,-0.1518,-0.156,-0.1496,-0.1641,-0.1639,-0.1327,-0.1317,-0.1305,-0.1296,-0.1288,-0.1281,-0.1276,0,-0.0493,-0.05,-0.0552,-0.0557,-0.0584,-0.0634,-0.0665,-0.0785,-0.0803,-0.0888,-0.0882,-0.0962,-0.1022,-0.1035,-0.1178,-0.1263,-0.1268,-0.1291,-0.1418,-0.1282,-0.1273,-0.1275,-0.1275,-0.1263,-0.1261,-0.1259,-0.1257,0,-0.0438,-0.0466,-0.0478,-0.0492,-0.0519,-0.0523,-0.0567,-0.0581,-0.0672,-0.0767,-0.0751,-0.0789,-0.0775,-0.0883,-0.0901,-0.0982,-0.131,-0.121,-0.1231,-0.1351,-0.1232,-0.123,-0.124,-0.1229,-0.1233,-0.1236,-0.1237,0,-0.0403,-0.0396,-0.0424,-0.0431,-0.0439,-0.0414,-0.0449,-0.046,-0.0509,-0.0612,-0.0557,-0.0625,-0.0705,-0.0718,-0.0739,-0.0773,-0.0833,-0.0919,-0.0957,-0.0989,-0.0895,-0.0698,-0.0506,0,0,0,0,0,-0.0358,-0.0355,-0.0357,-0.0357,-0.0347,-0.0352,-0.038,-0.0415,-0.048,-0.0442,-0.0518,-0.0489,-0.051,-0.0547,-0.0531,-0.0596,-0.0833,-0.0575,-0.0951,-0.1076,-0.1108,-0.1027,0,0,0,0,0,0,-0.0331,-0.0337,-0.0347,-0.0296,-0.0264,-0.0253,-0.0262,-0.0301,-0.03,-0.0368,-0.0389,-0.0443,-0.0481,-0.0502,-0.0513,-0.0523,-0.0751,-0.0615,-0.0613,-0.1058,-0.1087,-0.1113,-0.1041,0,0,0,0,0]},{"header":{"parameterUnit":"m.s-1","parameterCategory":2,"la1":30.2991,"la2":30.254,"lo1":-89.0895,"lo2":-89.0444,"dy":0.0017,"dx":0.0017,"nx":28,"ny":28,"refTime":"2023-11-08T03:00:00:Z","depth":"4","parameterNumber":3,"parameterNumberName":"V-component_of_CURRENTS"},"data":[0,0,0,0,0,0,0,0,0,0,0,0,0,0,0,0,0,0,0,0,0,0,0,0,0,0,0,0,0,0,0,0,0,0,0,0,0,0,0,0,0,0,0,0,0,0,0,0,0,0,0,0,0,0,0,0,0,0,-0.0073,-0.0073,0,-0.0066,-0.0066,-0.0066,-0.0028,-0.0027,-0.0027,-0.0026,-0.0025,-0.0026,-0.0026,0,0,0,0,0,0,0,0,0,0,0,0,0,-0.0038,-0.0039,-0.0073,-0.0073,-0.0073,-0.0066,-0.0066,-0.0066,-0.0028,-0.0027,-0.0026,-0.0025,-0.0025,-0.0026,-0.0027,0,0,0,0,0,0,0,0,0,0,0,0,0,-0.0044,-0.0039,-0.0073,-0.0053,-0.0052,-0.0066,-0.0066,-0.0066,-0.0029,-0.0027,-0.0026,-0.0025,-0.0024,-0.0025,-0.0027,-0.0061,0,0,-0.003,-0.0031,0,0,0,0,0,0,0,0,-0.0044,-0.0046,-0.0056,-0.0055,-0.0053,-0.0047,-0.0054,-0.0065,-0.0029,-0.0037,-0.0026,-0.0024,-0.0034,-0.0034,-0.0036,-0.0061,-0.0061,-0.003,-0.0031,-0.0032,-0.0032,0,0,0,0,0,0,0,-0.0044,-0.0046,-0.007,-0.0056,-0.0054,-0.004,-0.0039,-0.0055,-0.0043,-0.0036,-0.0034,-0.0034,-0.0033,-0.0035,-0.0035,-0.0061,-0.003,-0.0031,-0.0032,-0.0033,-0.0118,-0.0119,0,0,0,0,0,0,-0.0048,-0.0046,-0.007,-0.007,-0.0045,-0.0042,-0.0041,-0.005,-0.0043,-0.004,-0.0035,-0.0032,-0.0033,-0.0034,-0.0035,-0.0086,-0.0032,-0.0033,-0.0034,-0.0116,-0.0118,-0.012,0,0,0,0,0,0,-0.0047,-0.005,-0.0071,-0.0057,-0.0059,-0.0044,-0.0054,-0.0051,-0.0047,-0.0042,-0.0039,-0.0034,-0.0032,-0.0033,-0.0055,-0.0085,-0.0033,-0.0034,-0.0114,-0.0117,-0.0119,-0.018,0,0,0,0,0,0,-0.0046,-0.005,-0.0057,-0.0058,-0.0059,-0.0094,-0.0055,-0.0051,-0.0049,-0.0045,-0.004,-0.0039,-0.0031,-0.0054,-0.0056,-0.0086,-0.0035,-0.0112,-0.0115,-0.0118,-0.0176,-0.0184,-0.0191,0,0,0,0,0,-0.0045,-0.0066,-0.0058,-0.0061,-0.007,-0.0096,-0.0097,-0.008,-0.0051,-0.0067,-0.0056,-0.0039,-0.0074,-0.0056,-0.0059,-0.0089,-0.0111,-0.0114,-0.0118,-0.0173,-0.0183,-0.0191,0,0,0,0,0,0,-0.0058,-0.0064,-0.0055,-0.0077,-0.0091,-0.009,-0.01,-0.0084,-0.0087,-0.0076,-0.006,-0.006,-0.0092,-0.0084,-0.0065,-0.0122,-0.0089,-0.0094,-0.013,-0.014,-0.0147,-0.0153,-0.0036,0,0,0,0,0,-0.0064,-0.0078,-0.0087,-0.0105,-0.0113,-0.0105,-0.0109,-0.01,-0.0102,-0.01,-0.01,-0.0099,-0.0111,-0.0118,-0.0131,-0.0164,-0.0135,-0.0185,-0.0193,-0.0199,-0.0207,-0.0165,-0.0168,-0.0131,-0.0131,-0.0131,0,0,-0.0077,-0.0079,-0.0089,-0.0108,-0.0112,-0.0147,-0.0105,-0.012,-0.0145,-0.0103,-0.0137,-0.0129,-0.0127,-0.0163,-0.0176,-0.0158,-0.0201,-0.0203,-0.0209,-0.0213,-0.0169,-0.0172,-0.0175,-0.0133,-0.0133,-0.0132,0,0,-0.0116,-0.0111,-0.0141,-0.0157,-0.0168,-0.0172,-0.0179,-0.0187,-0.0186,-0.0218,-0.0191,-0.0201,-0.0225,-0.023,-0.0233,-0.0292,-0.0243,-0.0292,-0.0334,-0.0294,-0.0296,-0.0297,-0.0287,-0.0287,-0.0294,-0.0294,-0.0294,0,-0.013,-0.0164,-0.0156,-0.0192,-0.0211,-0.0189,-0.0234,-0.0241,-0.0255,-0.0269,-0.024,-0.0268,-0.0262,-0.0298,-0.0312,-0.0311,-0.0277,-0.0298,-0.0301,-0.0302,-0.0302,-0.0291,-0.029,-0.0297,-0.0297,-0.0296,-0.0296,0,-0.0197,-0.0223,-0.0244,-0.0282,-0.0308,-0.0338,-0.0352,-0.037,-0.0359,-0.0369,-0.0398,-0.0378,-0.0391,-0.039,-0.0366,-0.0378,-0.0351,-0.0314,-0.0273,-0.0309,-0.0296,-0.0294,-0.0302,-0.0301,-0.03,-0.0299,0,0,-0.0232,-0.0281,-0.0289,-0.0313,-0.0352,-0.0379,-0.0429,-0.0473,-0.0494,-0.0502,-0.0533,-0.0541,-0.0511,-0.0511,-0.0476,-0.0437,-0.0414,-0.0372,-0.0368,-0.0354,-0.0332,-0.0338,-0.0336,-0.0354,-0.0354,-0.0354,-0.0329,0,-0.0285,-0.0358,-0.0377,-0.0451,-0.0487,-0.0494,-0.0543,-0.0577,-0.0585,-0.0612,-0.0592,-0.0611,-0.0563,-0.055,-0.051,-0.0426,-0.0407,-0.0425,-0.0306,-0.0304,-0.0297,-0.0333,-0.0352,-0.0327,-0.0327,-0.0326,-0.0326,0,-0.0347,-0.0381,-0.0464,-0.0516,-0.0535,-0.0587,-0.064,-0.0677,-0.0714,-0.0714,-0.0724,-0.0701,-0.0677,-0.061,-0.0508,-0.0509,-0.0438,-0.0371,-0.0368,-0.0349,-0.0306,-0.0279,-0.0321,-0.0322,-0.0322,-0.0322,-0.0323,0,-0.0362,-0.0439,-0.0501,-0.0524,-0.0591,-0.0633,-0.067,-0.072,-0.0744,-0.0776,-0.0783,-0.0762,-0.0735,-0.0634,-0.0522,-0.0495,-0.0396,-0.0344,-0.0303,-0.0303,-0.0274,-0.0272,-0.0289,-0.0289,-0.0289,-0.0289,-0.0289,0,-0.04,-0.045,-0.0514,-0.0544,-0.0615,-0.0659,-0.0725,-0.0755,-0.0797,-0.0814,-0.0829,-0.0804,-0.0726,-0.0666,-0.055,-0.0432,-0.0425,-0.0325,-0.0296,-0.0306,-0.0308,-0.0274,-0.0272,-0.0288,-0.0288,-0.0289,-0.0289,0,-0.0414,-0.0456,-0.052,-0.0595,-0.0623,-0.0674,-0.0751,-0.0781,-0.0823,-0.0836,-0.0846,-0.0841,-0.0741,-0.0685,-0.0536,-0.0477,-0.0358,-0.0329,-0.0388,-0.0359,-0.0286,-0.0288,-0.0264,-0.0264,-0.0264,-0.0264,-0.0264,0,-0.0429,-0.0464,-0.0544,-0.0577,-0.0618,-0.0689,-0.0728,-0.0788,-0.0796,-0.0817,-0.0802,-0.0781,-0.0748,-0.0582,-0.0506,-0.0374,-0.0344,-0.0333,-0.0276,-0.0309,-0.0283,-0.0285,-0.0287,-0.0264,-0.0264,-0.0264,-0.0264,0,-0.0445,-0.0474,-0.0517,-0.0578,-0.063,-0.0679,-0.0725,-0.0735,-0.0765,-0.0804,-0.0743,-0.0706,-0.0631,-0.0533,-0.0493,-0.0368,-0.0358,-0.0332,-0.0329,-0.0275,-0.0309,-0.0283,-0.0285,-0.0264,-0.0264,-0.0264,-0.0264,0,-0.0445,-0.0472,-0.0516,-0.057,-0.0625,-0.0648,-0.0683,-0.0678,-0.07,-0.071,-0.0669,-0.0623,-0.0612,-0.0528,-0.0439,-0.0385,-0.0332,-0.0305,-0.0303,-0.0302,-0.0322,-0.037,-0.033,0,0,0,0,0,-0.0433,-0.0456,-0.0502,-0.0552,-0.0601,-0.0631,-0.0664,-0.0684,-0.0699,-0.0643,-0.0662,-0.0575,-0.0493,-0.0463,-0.0396,-0.042,-0.0331,-0.0343,-0.03,-0.0263,-0.0264,-0.0281,0,0,0,0,0,0,-0.0426,-0.0462,-0.0487,-0.052,-0.0548,-0.0593,-0.0614,-0.0628,-0.0589,-0.0599,-0.0544,-0.0555,-0.0464,-0.0516,-0.0389,-0.0379,-0.0343,-0.0316,-0.0314,-0.0263,-0.0263,-0.0264,-0.0281,0,0,0,0,0]}]]